Simultaneous Nadir Overpasses (SNOs) Predictions

Prediction of SNOs between AQUA and METOP-B Satellite Orbit:

Table of predicted SNOs for the next 14.0 days since TLE Epoch: 8/23/2019
Index Date (AQUA) Time (AQUA) Lat,Lon (AQUA) SZA (AQUA ) Date (METOP-B) Time (METOP-B) Lat,Lon (METOP-B) SZA (METOP-B ) Distance(km) Time Diff (sec)
1 08/26/2019 11:29:36 -73.76,-178.03 116.65 08/26/2019 11:28:23 -73.71,-178.32 116.68 10.69 73
2 08/26/2019 12:19:06 73.86, -10.62 63.47 08/26/2019 12:19:00 73.85, -10.66 63.47 1.63 6
3 08/26/2019 13:08:32 -73.91, 156.92 116.47 08/26/2019 13:09:40 -73.93, 156.88 116.45 3.29 68
4 08/29/2019 07:03:52 -73.80,-111.68 115.63 08/29/2019 07:02:43 -73.81,-111.68 115.61 1.17 69
5 08/29/2019 07:53:21 73.85, 55.83 64.45 08/29/2019 07:53:22 73.84, 55.74 64.44 2.88 1
6 08/29/2019 08:42:48 -73.95,-136.74 115.44 08/29/2019 08:44:01 -73.98,-136.59 115.42 6.01 73
7 09/01/2019 02:38:07 -73.79, -45.24 114.63 09/01/2019 02:37:05 -73.81, -45.27 114.60 2.07 62
8 09/01/2019 03:27:37 73.90, 122.16 65.50 09/01/2019 03:27:43 73.89, 122.26 65.49 3.46 6
9 09/01/2019 04:17:08 -74.20, -70.88 114.17 09/01/2019 04:18:18 -74.23, -69.57 114.19 39.69 70
10 09/03/2019 22:12:21 -73.79, 21.20 113.61 09/03/2019 22:11:26 -73.81, 21.14 113.59 2.67 55
11 09/03/2019 23:01:51 73.91,-171.41 66.53 09/03/2019 23:02:04 73.88,-171.35 66.50 3.19 13
12 09/03/2019 23:51:27 -74.46, -5.05 112.88 09/03/2019 23:52:34 -74.47, -2.54 112.94 74.85 67
13 09/06/2019 17:46:36 -73.80, 87.63 112.57 09/06/2019 17:45:48 -73.81, 87.54 112.55 2.93 48
14 09/06/2019 18:36:05 73.86,-104.88 67.51 09/06/2019 18:36:26 73.88,-104.95 67.53 2.92 21




NCC Satellite Simultaneous Nadir Overpasses (SNOs) Prediction Service
